Location: Lafig�re
(44.4503°N, 4.0357°E)
Time: 16:05:34
(UTC+00:00)

Vanguard 2 Rocket - Pass Details

Date: 18 June 2021
Orbit: 555 x 3325 km, 32.9° (Epoch: 28 July)

Event Time Altitude Azimuth Distance (km) Brightness Sun altitude
Rises 23:06:25 0° 269° (W) 6,844 11.5 -21.5°
Reaches altitude 10° 23:11:49 10° 263° (W) 5,477 10.9 -21.7°
Maximum altitude 23:25:13 40° 202° (SSW) 2,549 8.7 -22.0°
Enters shadow 23:28:40 32° 164° (SSE) 2,531 8.6 -22.0°
